Regional Weather Roundup
Issued by NWS

Home | Current Version | Previous Version | Text Only | Print | Product List | Glossary Off
Versions: 1 2 3 4 5 6 7 8 9 10 11 12 13 14 15 16 17 18 19 20 21 22 23 24 25 26 27 28 29 30 31 32 33 34 35 36 37 38 39 40 41 42 43 44 45 46 47 48 49 50

000
ASUS45 KABQ 210901
RWRNM
NEW MEXICO REGIONAL WEATHER ROUNDUP
NATIONAL WEATHER SERVICE ALBUQUERQUE NM
200 AM MST WED FEB 21 2018

NOTE: "FAIR" MEANS FEW OR NO CLOUDS BELOW 12,000 FEET AGL WITH NO
       SIGNIFICANT WEATHER OR OBSTRUCTIONS TO VISION.

      THIS PRODUCT IS RELEASED AS TWO VERSIONS.  ONE VERSION NEAR
      THE TOP OF THE HOUR CONTAINING PRELIMINARY DATA FROM ALBUQUERQUE
      AND OTHER STATIONS.  A FINAL VERSION WITH ADDITIONAL DATA IS
      ISSUED ABOUT 10 MINUTES AFTER THE HOUR.

NMZ501-503-504-510>518-211000-
NORTHWEST PLATEAU/NORTHCENTRAL MOUNTAINS

CITY           SKY/WX    TMP DP  RH WIND       PRES   REMARKS
FARMINGTON     FAIR      15   8  73 NE3       30.11F
LOS ALAMOS     CLOUDY    25  12  58 W5        30.10S WCI  19
SANTA FE       CLOUDY    25  19  78 W5        30.10F WCI  19
TAOS           CLOUDY    19  11  70 N9        30.12F WCI   8
ANGEL FIRE     CLOUDY    17  11  78 SW3       30.07F

$$
NMZ402-403-502-505>509-211000-
WESTCENTRAL MOUNTAINS/SOUTHWEST MOUNTAINS

CITY           SKY/WX    TMP DP  RH WIND       PRES   REMARKS
GALLUP         FAIR      13   8  81 E6        30.08F WCI   4
GRANTS         FAIR      14  11  88 NW5       30.10S WCI   6
SILVER CITY    CLOUDY    34  28  80 CALM      30.07S

$$
NMZ407-409-411-412-211000-
SOUTHERN DESERTS

CITY           SKY/WX    TMP DP  RH WIND       PRES   REMARKS
DEMING         FAIR      34  31  88 SW5       30.07S WCI  30
LAS CRUCES     FAIR      37  32  82 CALM      30.08S
HOLLOMAN AFB   FAIR      37  33  86 NE6       30.08S WCI  32
ALAMOGORDO     FAIR      39  32  75 E7        30.06F WCI  34
T OR C         MOCLDY    38  23  55 N7        30.07S WCI  33

$$
NMZ519>523-211000-
CENTRAL VALLEYS/CENTRAL HIGHLANDS

CITY           SKY/WX    TMP DP  RH WIND       PRES   REMARKS
ALBUQUERQUE    MOCLDY    33  17  51 NE7       30.11S WCI  27
MORIARTY ARPT  CLOUDY    25  22  88 W5        30.13S WCI  19
CLINES CORNERS CLOUDY    22  14  71 E13       30.11S WCI  10
BELEN          CLOUDY    27  16  63 NW3       30.11F
SOCORRO        FAIR      31  20  63 N6        30.10F WCI  25

$$
NMZ524>526-539-540-211000-
SOUTHCENTRAL MOUNTAINS

CITY           SKY/WX    TMP DP  RH WIND       PRES   REMARKS
RUIDOSO        NOT AVBL

$$
NMZ527>531-211000-
NORTHEAST HIGHLANDS/NORTHEAST PLAINS

CITY           SKY/WX    TMP DP  RH WIND       PRES   REMARKS
LAS VEGAS      FAIR      13   8  81 E7        30.11S WCI   3
RATON          FAIR      13   5  70 W8        30.12F WCI   2
CLAYTON        FAIR       7  -2  66 N7        30.21F WCI  -5

$$
NMZ532>537-211000-
EASTCENTRAL PLAINS

CITY           SKY/WX    TMP DP  RH WIND       PRES   REMARKS
SANTA ROSA     FAIR      21   4  46 NE14      30.19S WCI   8
TUCUMCARI      FAIR      21   1  41 NE13      30.25R WCI   9
CANNON AFB     FAIR      21   5  49 NE16      30.23R WCI   7
CLOVIS AIRPORT NOT AVBL

$$
NMZ028-029-538-211000-
SOUTHEAST PLAINS

CITY           SKY/WX    TMP DP  RH WIND       PRES   REMARKS
ROSWELL        MOCLDY    36  20  52 NE14      30.17R WCI  27
ARTESIA        FAIR      37  21  52 N12       30.18R WCI  30
CARLSBAD       FAIR      37  24  59 NE9       30.16R WCI  30
HOBBS          CLOUDY    30  18  59 NE18      30.16R WCI  18


$$



USA.gov is the U.S. government's official web portal to all federal, state and local government web resources and services.